カタログに戻る

DELTA 1 DEB

運用中PO
NORAD 21291·DEBRIS·🇺🇸 United States

打ち上げ Jun 12, 1975 から Vandenberg Space Force Base

Loading…

次のパス (今後24時間)

TLE

最新Source: Space-Track

元期: Sep 14, 2026, 08:27 UTC

1 21291U 75052AC  26257.35216416  .00000237  00000-0  24127-3 0  9995
2 21291  99.8978  65.9124 0137201 175.5506 302.7309 13.83426225779976

AllMySatでDELTA 1 DEBをリアルタイム追跡

Download on the App Store